Time,TemperatureF,DewpointF,PressureIn,WindDirection,WindDirectionDegrees,WindSpeedMPH,WindSpeedGustMPH,Humidity,HourlyPrecipIn,Conditions,Clouds,dailyrainin,SoftwareType,DateUTC
2013-03-02 00:01:00,31.0,28.0,-100.00,WSW,254,10.0,-999.0,89,0.01,,,-99.99,,2013-03-02 00:01:00,
2013-03-02 00:11:00,31.0,28.0,-100.00,WSW,254,10.0,-999.0,89,0.01,,,-99.99,,2013-03-02 00:11:00,
2013-03-02 00:21:00,31.0,28.0,-100.00,WSW,254,10.0,-999.0,89,0.01,,,-99.99,,2013-03-02 00:21:00,
2013-03-02 00:30:00,31.0,28.0,-100.00,West,281,6.0,-999.0,89,0.00,,,-99.99,,2013-03-02 00:30:00,
2013-03-02 00:52:00,31.0,28.0,-100.00,West,281,6.0,-999.0,89,0.00,,,-99.99,,2013-03-02 00:52:00,
2013-03-02 01:01:00,31.0,28.0,-100.00,West,281,6.0,-999.0,89,0.00,,,-99.99,,2013-03-02 01:01:00,
2013-03-02 01:11:00,31.0,28.0,-100.00,West,281,6.0,-999.0,89,0.00,,,-99.99,,2013-03-02 01:11:00,
2013-03-02 01:21:00,31.0,28.0,-100.00,West,281,6.0,-999.0,89,0.00,,,-99.99,,2013-03-02 01:21:00,
2013-03-02 01:30:00,31.0,26.0,-100.00,WNW,294,6.0,-999.0,82,0.00,,,-99.99,,2013-03-02 01:30:00,
2013-03-02 01:52:00,31.0,26.0,-100.00,WNW,294,6.0,-999.0,82,0.00,,,-99.99,,2013-03-02 01:52:00,
2013-03-02 02:01:00,31.0,26.0,-100.00,WNW,294,6.0,-999.0,82,0.00,,,-99.99,,2013-03-02 02:01:00,
2013-03-02 02:11:00,31.0,26.0,-100.00,WNW,294,6.0,-999.0,82,0.00,,,-99.99,,2013-03-02 02:11:00,
2013-03-02 02:21:00,31.0,26.0,-100.00,WNW,294,6.0,-999.0,82,0.00,,,-99.99,,2013-03-02 02:21:00,
2013-03-02 02:30:00,32.0,26.0,-100.00,West,270,5.0,-999.0,77,0.00,,,-99.99,,2013-03-02 02:30:00,
2013-03-02 02:52:00,32.0,26.0,-100.00,West,270,5.0,-999.0,77,0.00,,,-99.99,,2013-03-02 02:52:00,
2013-03-02 03:01:00,32.0,26.0,-100.00,West,270,5.0,-999.0,77,0.00,,,-99.99,,2013-03-02 03:01:00,
2013-03-02 03:11:00,32.0,26.0,-100.00,West,270,5.0,-999.0,77,0.00,,,-99.99,,2013-03-02 03:11:00,
2013-03-02 03:21:00,32.0,26.0,-100.00,West,270,5.0,-999.0,77,0.00,,,-99.99,,2013-03-02 03:21:00,
2013-03-02 03:30:00,32.0,26.0,-100.00,West,274,7.0,-999.0,77,0.00,,,-99.99,,2013-03-02 03:30:00,
2013-03-02 03:52:00,32.0,26.0,-100.00,West,274,7.0,-999.0,77,0.00,,,-99.99,,2013-03-02 03:52:00,
2013-03-02 04:01:00,32.0,26.0,-100.00,West,274,7.0,-999.0,77,0.00,,,-99.99,,2013-03-02 04:01:00,
2013-03-02 04:11:00,32.0,26.0,-100.00,West,274,7.0,-999.0,77,0.00,,,-99.99,,2013-03-02 04:11:00,
2013-03-02 04:21:00,32.0,26.0,-100.00,West,274,7.0,-999.0,77,0.00,,,-99.99,,2013-03-02 04:21:00,
2013-03-02 04:30:00,32.0,26.0,-100.00,WNW,297,5.0,-999.0,78,0.00,,,-99.99,,2013-03-02 04:30:00,
2013-03-02 04:52:00,32.0,26.0,-100.00,WNW,297,5.0,-999.0,78,0.00,,,-99.99,,2013-03-02 04:52:00,
2013-03-02 05:01:00,32.0,26.0,-100.00,WNW,297,5.0,-999.0,78,0.00,,,-99.99,,2013-03-02 05:01:00,
2013-03-02 05:12:00,32.0,26.0,-100.00,WNW,297,5.0,-999.0,78,0.00,,,-99.99,,2013-03-02 05:12:00,
2013-03-02 05:22:00,32.0,26.0,-100.00,WNW,297,5.0,-999.0,78,0.00,,,-99.99,,2013-03-02 05:22:00,
2013-03-02 05:30:00,32.0,25.0,-100.00,NNW,338,2.0,-999.0,75,0.00,,,-99.99,,2013-03-02 05:30:00,
2013-03-02 05:52:00,32.0,25.0,-100.00,NNW,338,2.0,-999.0,75,0.00,,,-99.99,,2013-03-02 05:52:00,
2013-03-02 06:01:00,32.0,25.0,-100.00,NNW,338,2.0,-999.0,75,0.00,,,-99.99,,2013-03-02 06:01:00,
2013-03-02 06:11:00,32.0,25.0,-100.00,NNW,338,2.0,-999.0,75,0.00,,,-99.99,,2013-03-02 06:11:00,
2013-03-02 06:21:00,32.0,25.0,-100.00,NNW,338,2.0,-999.0,75,0.00,,,-99.99,,2013-03-02 06:21:00,
2013-03-02 06:30:00,32.0,26.0,-100.00,North,6,1.0,-999.0,78,0.00,,,-99.99,,2013-03-02 06:30:00,
2013-03-02 06:52:00,32.0,26.0,-100.00,North,6,1.0,-999.0,78,0.00,,,-99.99,,2013-03-02 06:52:00,
2013-03-02 07:01:00,32.0,26.0,-100.00,North,6,1.0,-999.0,78,0.00,,,-99.99,,2013-03-02 07:01:00,
2013-03-02 07:11:00,32.0,26.0,-100.00,North,6,1.0,-999.0,78,0.00,,,-99.99,,2013-03-02 07:11:00,
2013-03-02 07:21:00,32.0,26.0,-100.00,North,6,1.0,-999.0,78,0.00,,,-99.99,,2013-03-02 07:21:00,
2013-03-02 07:30:00,32.0,27.0,-100.00,NE,44,6.0,-999.0,80,0.00,,,-99.99,,2013-03-02 07:30:00,
2013-03-02 07:52:00,32.0,27.0,-100.00,NE,44,6.0,-999.0,80,0.00,,,-99.99,,2013-03-02 07:52:00,
2013-03-02 08:01:00,32.0,27.0,-100.00,NE,44,6.0,-999.0,80,0.00,,,-99.99,,2013-03-02 08:01:00,
2013-03-02 08:11:00,32.0,27.0,-100.00,NE,44,6.0,-999.0,80,0.00,,,-99.99,,2013-03-02 08:11:00,
2013-03-02 08:21:00,32.0,27.0,-100.00,NE,44,6.0,-999.0,80,0.00,,,-99.99,,2013-03-02 08:21:00,
2013-03-02 08:30:00,32.0,27.0,-100.00,NE,50,4.0,-999.0,80,0.00,,,-99.99,,2013-03-02 08:30:00,
2013-03-02 08:52:00,32.0,27.0,-100.00,NE,50,4.0,-999.0,80,0.00,,,-99.99,,2013-03-02 08:52:00,
2013-03-02 09:01:00,32.0,27.0,-100.00,NE,50,4.0,-999.0,80,0.00,,,-99.99,,2013-03-02 09:01:00,
2013-03-02 09:11:00,32.0,27.0,-100.00,NE,50,4.0,-999.0,80,0.00,,,-99.99,,2013-03-02 09:11:00,
2013-03-02 09:21:00,32.0,27.0,-100.00,NE,50,4.0,-999.0,80,0.00,,,-99.99,,2013-03-02 09:21:00,
2013-03-02 09:30:00,32.0,27.0,-100.00,ESE,122,3.0,-999.0,84,0.00,,,-99.99,,2013-03-02 09:30:00,
2013-03-02 09:52:00,32.0,27.0,-100.00,ESE,122,3.0,-999.0,84,0.00,,,-99.99,,2013-03-02 09:52:00,
2013-03-02 10:02:00,32.0,-99.9,-100.00,ESE,122,3.0,-999.0,84,0.00,,,-99.99,,2013-03-02 10:02:00,
2013-03-02 10:15:00,32.0,27.0,-100.00,ESE,122,3.0,-999.0,84,0.00,,,-99.99,,2013-03-02 10:15:00,
2013-03-02 10:21:00,32.0,27.0,-100.00,ESE,122,3.0,-999.0,84,0.00,,,-99.99,,2013-03-02 10:21:00,
2013-03-02 10:30:00,31.0,-99.9,-100.00,East,87,8.0,-999.0,88,0.00,,,-99.99,,2013-03-02 10:30:00,
2013-03-02 10:52:00,31.0,28.0,-100.00,East,87,8.0,-999.0,88,0.00,,,-99.99,,2013-03-02 10:52:00,
2013-03-02 11:01:00,31.0,28.0,-100.00,East,87,8.0,-999.0,88,0.00,,,-99.99,,2013-03-02 11:01:00,
2013-03-02 11:11:00,31.0,28.0,-100.00,East,87,8.0,-999.0,88,0.00,,,-99.99,,2013-03-02 11:11:00,
2013-03-02 11:21:00,31.0,28.0,-100.00,East,87,8.0,-999.0,88,0.00,,,-99.99,,2013-03-02 11:21:00,
2013-03-02 11:30:00,31.0,27.0,-100.00,NE,52,9.0,-999.0,86,0.00,,,-99.99,,2013-03-02 11:30:00,
2013-03-02 11:52:00,31.0,27.0,-100.00,NE,52,9.0,-999.0,86,0.00,,,-99.99,,2013-03-02 11:52:00,
2013-03-02 12:02:00,31.0,-99.9,-100.00,NE,52,9.0,-999.0,86,0.00,,,-99.99,,2013-03-02 12:02:00,
2013-03-02 12:11:00,31.0,-99.9,-100.00,NE,52,9.0,-999.0,86,0.00,,,-99.99,,2013-03-02 12:11:00,
2013-03-02 12:22:00,31.0,-99.9,-100.00,NE,52,9.0,-999.0,86,0.00,,,-99.99,,2013-03-02 12:22:00,
2013-03-02 12:30:00,31.0,-99.9,-100.00,ENE,57,17.0,-999.0,90,0.00,,,-99.99,,2013-03-02 12:30:00,
2013-03-02 12:53:00,31.0,28.0,-100.00,ENE,57,17.0,-999.0,90,0.00,,,-99.99,,2013-03-02 12:53:00,
2013-03-02 13:01:00,31.0,28.0,-100.00,ENE,57,17.0,-999.0,90,0.00,,,-99.99,,2013-03-02 13:01:00,
2013-03-02 13:11:00,31.0,28.0,-100.00,ENE,57,17.0,-999.0,90,0.00,,,-99.99,,2013-03-02 13:11:00,
2013-03-02 13:21:00,31.0,28.0,-100.00,ENE,57,17.0,-999.0,90,0.00,,,-99.99,,2013-03-02 13:21:00,
2013-03-02 13:30:00,30.0,29.0,-100.00,ENE,60,14.0,-999.0,94,0.00,,,-99.99,,2013-03-02 13:30:00,
2013-03-02 13:52:00,30.0,29.0,-100.00,ENE,60,14.0,-999.0,94,0.00,,,-99.99,,2013-03-02 13:52:00,
2013-03-02 14:01:00,30.0,-99.9,-100.00,ENE,60,14.0,-999.0,94,0.00,,,-99.99,,2013-03-02 14:01:00,
2013-03-02 14:11:00,30.0,-99.9,-100.00,ENE,60,14.0,-999.0,94,0.00,,,-99.99,,2013-03-02 14:11:00,
2013-03-02 14:22:00,30.0,-99.9,-100.00,ENE,60,14.0,-999.0,94,0.00,,,-99.99,,2013-03-02 14:22:00,
2013-03-02 14:30:00,30.0,28.0,-100.00,NE,35,11.0,-999.0,91,0.00,,,-99.99,,2013-03-02 14:30:00,
2013-03-02 14:52:00,30.0,28.0,-100.00,NE,35,11.0,-999.0,91,0.00,,,-99.99,,2013-03-02 14:52:00,
2013-03-02 15:01:00,30.0,28.0,-100.00,NE,35,11.0,-999.0,91,0.00,,,-99.99,,2013-03-02 15:01:00,
2013-03-02 15:11:00,30.0,28.0,-100.00,NE,35,11.0,-999.0,91,0.00,,,-99.99,,2013-03-02 15:11:00,
2013-03-02 15:21:00,30.0,28.0,-100.00,NE,35,11.0,-999.0,91,0.00,,,-99.99,,2013-03-02 15:21:00,
2013-03-02 15:30:00,30.0,27.0,-100.00,NE,37,17.0,-999.0,89,0.00,,,-99.99,,2013-03-02 15:30:00,
2013-03-02 15:52:00,30.0,27.0,-100.00,NE,37,17.0,-999.0,89,0.00,,,-99.99,,2013-03-02 15:52:00,
2013-03-02 16:01:00,30.0,27.0,-100.00,NE,37,17.0,-999.0,89,0.00,,,-99.99,,2013-03-02 16:01:00,
2013-03-02 16:11:00,30.0,27.0,-100.00,NE,37,17.0,-999.0,89,0.00,,,-99.99,,2013-03-02 16:11:00,
2013-03-02 16:21:00,30.0,27.0,-100.00,NE,37,17.0,-999.0,89,0.00,,,-99.99,,2013-03-02 16:21:00,
2013-03-02 16:30:00,30.0,27.0,-100.00,NE,46,15.0,-999.0,90,0.00,,,-99.99,,2013-03-02 16:30:00,
2013-03-02 16:52:00,30.0,27.0,-100.00,NE,46,15.0,-999.0,90,0.00,,,-99.99,,2013-03-02 16:52:00,
2013-03-02 17:01:00,30.0,27.0,-100.00,NE,46,15.0,-999.0,90,0.00,,,-99.99,,2013-03-02 17:01:00,
2013-03-02 17:11:00,30.0,27.0,-100.00,NE,46,15.0,-999.0,90,0.00,,,-99.99,,2013-03-02 17:11:00,
2013-03-02 17:21:00,30.0,27.0,-100.00,NE,46,15.0,-999.0,90,0.00,,,-99.99,,2013-03-02 17:21:00,
2013-03-02 17:30:00,30.0,26.0,-100.00,ENE,66,13.0,-999.0,83,0.00,,,-99.99,,2013-03-02 17:30:00,
2013-03-02 17:52:00,30.0,26.0,-100.00,ENE,66,13.0,-999.0,83,0.00,,,-99.99,,2013-03-02 17:52:00,
2013-03-02 18:01:00,30.0,26.0,-100.00,ENE,66,13.0,-999.0,83,0.00,,,-99.99,,2013-03-02 18:01:00,
2013-03-02 18:11:00,30.0,26.0,-100.00,ENE,66,13.0,-999.0,83,0.00,,,-99.99,,2013-03-02 18:11:00,
2013-03-02 18:22:00,30.0,26.0,-100.00,ENE,66,13.0,-999.0,83,0.00,,,-99.99,,2013-03-02 18:22:00,
2013-03-02 18:30:00,31.0,26.0,-100.00,NE,47,16.0,-999.0,81,0.00,,,-99.99,,2013-03-02 18:30:00,
2013-03-02 18:52:00,31.0,26.0,-100.00,NE,47,16.0,-999.0,81,0.00,,,-99.99,,2013-03-02 18:52:00,
2013-03-02 19:01:00,31.0,26.0,-100.00,NE,47,16.0,-999.0,81,0.00,,,-99.99,,2013-03-02 19:01:00,
2013-03-02 19:11:00,31.0,26.0,-100.00,NE,47,16.0,-999.0,81,0.00,,,-99.99,,2013-03-02 19:11:00,
2013-03-02 19:21:00,31.0,26.0,-100.00,NE,47,16.0,-999.0,81,0.00,,,-99.99,,2013-03-02 19:21:00,
2013-03-02 19:30:00,31.0,25.0,-100.00,ENE,68,11.0,-999.0,78,0.00,,,-99.99,,2013-03-02 19:30:00,
2013-03-02 19:52:00,31.0,25.0,-100.00,ENE,68,11.0,-999.0,78,0.00,,,-99.99,,2013-03-02 19:52:00,
2013-03-02 20:01:00,31.0,25.0,-100.00,ENE,68,11.0,-999.0,78,0.00,,,-99.99,,2013-03-02 20:01:00,
2013-03-02 20:11:00,31.0,25.0,-100.00,ENE,68,11.0,-999.0,78,0.00,,,-99.99,,2013-03-02 20:11:00,
2013-03-02 20:21:00,31.0,25.0,-100.00,ENE,68,11.0,-999.0,78,0.00,,,-99.99,,2013-03-02 20:21:00,
2013-03-02 20:30:00,32.0,24.0,-100.00,ENE,66,11.0,-999.0,73,0.00,,,-99.99,,2013-03-02 20:30:00,
2013-03-02 20:52:00,32.0,24.0,-100.00,ENE,66,11.0,-999.0,73,0.00,,,-99.99,,2013-03-02 20:52:00,
2013-03-02 21:02:00,32.0,24.0,-100.00,ENE,66,11.0,-999.0,73,0.00,,,-99.99,,2013-03-02 21:02:00,
2013-03-02 21:11:00,32.0,24.0,-100.00,ENE,66,11.0,-999.0,73,0.00,,,-99.99,,2013-03-02 21:11:00,
2013-03-02 21:21:00,32.0,24.0,-100.00,ENE,66,11.0,-999.0,73,0.00,,,-99.99,,2013-03-02 21:21:00,
2013-03-02 21:30:00,34.0,24.0,-100.00,ENE,67,12.0,-999.0,68,0.00,,,-99.99,,2013-03-02 21:30:00,
2013-03-02 21:52:00,34.0,24.0,-100.00,ENE,67,12.0,-999.0,68,0.00,,,-99.99,,2013-03-02 21:52:00,
2013-03-02 22:01:00,34.0,24.0,-100.00,ENE,67,12.0,-999.0,68,0.00,,,-99.99,,2013-03-02 22:01:00,
2013-03-02 22:11:00,34.0,24.0,-100.00,ENE,67,12.0,-999.0,68,0.00,,,-99.99,,2013-03-02 22:11:00,
2013-03-02 22:21:00,34.0,24.0,-100.00,ENE,67,12.0,-999.0,68,0.00,,,-99.99,,2013-03-02 22:21:00,
2013-03-02 22:30:00,35.0,25.0,-100.00,ENE,76,9.0,-999.0,67,0.00,,,-99.99,,2013-03-02 22:30:00,
2013-03-02 22:52:00,35.0,25.0,-100.00,ENE,76,9.0,-999.0,67,0.00,,,-99.99,,2013-03-02 22:52:00,
2013-03-02 23:01:00,35.0,25.0,-100.00,ENE,76,9.0,-999.0,67,0.00,,,-99.99,,2013-03-02 23:01:00,
2013-03-02 23:11:00,35.0,25.0,-100.00,ENE,76,9.0,-999.0,67,0.00,,,-99.99,,2013-03-02 23:11:00,
2013-03-02 23:21:00,35.0,25.0,-100.00,ENE,76,9.0,-999.0,67,0.00,,,-99.99,,2013-03-02 23:21:00,
2013-03-02 23:30:00,35.0,26.0,-100.00,ENE,68,8.0,-999.0,67,0.00,,,-99.99,,2013-03-02 23:30:00,
2013-03-02 23:52:00,35.0,26.0,-100.00,ENE,68,8.0,-999.0,67,0.00,,,-99.99,,2013-03-02 23:52:00,